Regional Weather Roundup
Issued by NWS

Home | Current Version | Previous Version | Text Only | Print | Product List | Glossary On
Versions: 1 2 3 4 5 6 7 8 9 10 11 12 13 14 15 16 17 18 19 20 21 22 23 24 25 26 27 28
000
ASUS45 KSLC 201010
RWRUT

UTAH REGIONAL WEATHER ROUNDUP
NATIONAL WEATHER SERVICE SALT LAKE CITY UT
300 AM MST MON NOV 20 2017

UTZ001>011-023>025-201100-

NORTHERN UTAH

CITY           SKY/WX    TMP DP  RH WIND       PRES   REMARKS
BRIGHAM CITY   CLOUDY    31  28  87 CALM      30.10R
HILL AFB       CLOUDY    33  22  65 E13       30.07R WCI  23
LOGAN          CLOUDY    31  27  85 CALM      30.07S
OGDEN          CLOUDY    33  25  72 S5        30.08R WCI  29
SALT LAKE CITY CLOUDY    36  31  82 CALM      30.08R
TOOELE VALLEY  CLOUDY    32  30  93 CALM      30.09R
WENDOVER       CLOUDY    32  25  75 CALM      30.09S
HEBER CITY       N/A     27  23  86 CALM      30.09S
WEST JORDAN    CLOUDY    34  30  86 CALM      30.07S

$$

UTZ011>015-024>027-201100-

CENTRAL/NORTHEAST UTAH

CITY           SKY/WX    TMP DP  RH WIND       PRES   REMARKS
PROVO AIRPORT  CLOUDY    31  27  85 E6        30.09F WCI  25
MOAB/CANYONLAN CLOUDY    27   5  39 CALM      30.19R
DELTA          CLOUDY    30  19  64 CALM      30.10R
PRICE          CLOUDY    25   9  50 N5        30.17F WCI  19
RICHFIELD      CLEAR     25  23  93 CALM      30.14F
ROOSEVELT      CLOUDY    23  16  74 CALM      30.17R
VERNAL         CLOUDY    25  16  68 CALM      30.14S

$$

UTZ013>016-019>022-027-201100-

SOUTHERN UTAH

CITY           SKY/WX    TMP DP  RH WIND       PRES   REMARKS
BRYCE CANYON   CLOUDY    17   7  64 W5        30.20S WCI  10
CEDAR CITY     CLOUDY    39   6  25 SE10      30.11F WCI  32
MILFORD        CLOUDY    38  10  31 SW16      30.08F WCI  29
ST GEORGE      CLOUDY    39   7  26 CALM      30.14S
HANKSVILLE     CLOUDY    27   5  39 CALM      30.23R
KANAB          CLEAR     27   7  43 N6        30.20F WCI  20
BLANDING         N/A     28   4  35 NE3       30.26R

$$

REGIONAL REPORTS     COLORADO/ARIZONA

CITY           SKY/WX    TMP DP  RH WIND       PRES   REMARKS
CRAIG, CO      CLOUDY    15  11  83 CALM      30.15R
GRAND JUNCTION CLOUDY    25  16  68 E5        30.21R WCI  19
RIFLE, CO      CLOUDY    20  16  84 CALM      30.23S
MONTROSE, CO   CLOUDY    23  15  71 S8        30.23S WCI  14
CORTEZ, CO     CLOUDY    15   7  70 NE7       30.21S WCI   5
COLORADO CITY    N/A     28   9  43 SE6       30.18R WCI  22
PAGE, AZ       MOCLDY    34  12  40 CALM      30.18R
GRAND CANYON   MOCLDY    16  -3  43 E3        30.20S
KINGMAN, AZ    CLOUDY    36   8  31 CALM      30.08F
FLAGSTAFF, AZ  MOCLDY    20   5  52 CALM      30.21R

$$

REGIONAL REPORTS    NEVADA/IDAHO/WYOMING

CITY           SKY/WX    TMP DP  RH WIND       PRES   REMARKS
LAS VEGAS, NV  CLOUDY    46  11  24 SW3       30.06F
ELY, NY        CLOUDY    29   7  39 S7        30.13R WCI  22
ELKO, NV       CLOUDY    33  27  78 CALM      30.07S
POCATELLO, ID  CLOUDY    30  26  85 N5        30.01S WCI  25
BURLEY, ID     CLOUDY    32  26  78 NW3       30.00R
FORT BRIDGER,    N/A     25  13  60 W14       30.06S WCI  13
EVANSTON, WY   CLOUDY    27  16  63 SW14      30.05S WCI  16
ROCK SPRINGS,  CLOUDY    22  13  68 S7        30.04S WCI  13
KEMMERER, WY   CLOUDY    27  10  50 W8        30.05R WCI  18

$$




USA.gov is the U.S. government's official web portal to all federal, state and local government web resources and services.